Regional Weather Roundup
Issued by NWS State College, PA

Home | Current Version | Previous Version | Graphics & Text | Print | Product List | Glossary On
Versions: 1 2 3 4 5 6 7 8 9 10 11 12 13 14 15 16 17 18 19 20 21 22 23 24 25 26 27 28 29 30 31 32 33 34 35 36 37 38 39 40 41 42 43 44 45 46 47 48 49 50
000
ASUS41 KCTP 271103
RWRCTP

REGIONAL WEATHER ROUNDUP
NATIONAL WEATHER SERVICE STATE COLLEGE PA
700 AM EDT THU APR 27 2017

Note: "fair" indicates few or no clouds below 12,000 feet with no
significant weather and/or obstructions to visibility.

* = STATION THAT DOES NOT REPORT PRECIPITATION /E.G. RAIN...SNOW...ETC/
    THUNDER OR FOG.

PAZ002>004-007>009-013>016-020>023-029>032-271200-
WESTERN PENNSYLVANIA

CITY           SKY/WX    TMP DP  RH WIND       PRES   REMARKS
ERIE           CLEAR     66  55  67 S15       29.63R
MEADVILLE      CLEAR     61  56  83 VRB3      29.68R
FRANKLIN*      CLEAR     55  52  88 SE6       29.72S
NEW CASTLE     NOT AVBL
BEAVER COUNTY  NOT AVBL
BUTLER*        CLOUDY    61  55  82 SE6       29.71R
PITTSBURGH INT CLOUDY    60  57  89 SE5       29.69R
PITTSBURGH     CLEAR     59  55  87 SE5       29.69R
INDIANA*       CLEAR     61  57  88 E8        29.76R
LATROBE        PTCLDY    55  55 100 CALM      29.72R
WASHINGTON CO* CLOUDY    57  54  88 S5        29.71S
$$

PAZ004>006-010>012-017>019-024>028-033>037-041-042-045-046-049>053-271200-
CENTRAL PENNSYLVANIA

CITY           SKY/WX    TMP DP  RH WIND       PRES   REMARKS
BRADFORD       CLEAR     54  54 100 SE7       29.77S
DUBOIS         CLEAR     57  54  89 E9        29.76R
CLEARFIELD     FOG       53  53 100 NE8       29.80R VSB 3/4
JOHNSTOWN      CLEAR     58  56  93 S8        29.79R
ALTOONA        CLOUDY    59  57  93 CALM      29.81S FOG
STATE COLLEGE  CLOUDY    57  55  94 CALM      29.81R
WILLIAMSPORT   CLOUDY    59  56  89 E5        29.81S
SELINSGROVE    CLOUDY    54  54 100 CALM      29.84S FOG
FT INDIANTOWN  CLOUDY    55  55 100 CALM      29.86R FOG
CAPITAL CITY   FOG       57  55  93 E6        29.86R VSB 1
HARRISBURG     CLOUDY    56  56 100 E7        29.85S FOG
YORK           CLOUDY    55  55 100 CALM      29.84S FOG
$$

PAZ038>040-043-044-047-048-054-055-060>062-067>071-271200-
EASTERN PENNSYLVANIA

CITY           SKY/WX    TMP DP  RH WIND       PRES   REMARKS
SCRANTON       CLOUDY    60  56  86 CALM      29.86R FOG
MOUNT POCONO   FOG       54  54 100 SE3       29.89R VSB 1/4
ALLENTOWN      CLOUDY    62  56  80 S3        29.88R
QUAKERTOWN*    CLOUDY    59  57  94 CALM      29.89R
READING        CLOUDY    61  58  90 SE5       29.86R
LANCASTER      CLOUDY    56  56 100 E3        29.87R FOG
COATESVILLE    CLOUDY    59  59 100 SE3       29.89R FOG
POTTSTOWN      CLOUDY    59  57  93 CALM      29.89R FOG
BLUE BELL      CLOUDY    59  57  94 CALM      29.90R
DOYLESTOWN     CLOUDY    59  57  93 CALM      29.88R
WILLOW GROVE   NOT AVBL
NORTH PHILA    CLOUDY    61  58  90 CALM      29.90R
PHILADELPHIA   CLOUDY    61  58  90 S6        29.89R
$$




USA.gov is the U.S. government's official web portal to all federal, state and local government web resources and services.